SCP
0 0 0 0 0 0 0 0 0 0 0 0 0 0 0 0 0 0 0 0 0 0 0 0 0 0 0 0 0 0 0 0 0 0 0 0 0 0 0 0 0 0 0 0
0 0 0 0 0 0 0 0 0 0 0 0 0 0 0 0 0 0 0 0 0 0 0 0 0 0 0 0 0 0 0 0 0 0 0 0 0 0 0 0 0 0 0 0
0 0 0 0 0 0 0 0 0 0 0 0 0 0 0 0 0 0 0 0 0 0 0 0 0 0 0 0 0 0 0 0 0 0 0 0 0 0 0 0 0 0 0 0
0 0 0 0 0 0 0 0 0 0 0 0 0 0 0 0 0 0 0 0 0 0 0 0 0 0 0 0 0 0 0 0 0 0 0 0 0 0 0 0 0 0 0 0
0 0 0 0 0 0 0 0 0 0 0 0 0 0 0 0 0 0 0 0 0 0 0 0 0 0 0 0 0 0 0 0 0 0 0 0 0 0 0 0 0 0 0 0
0 0 0 0 0 0 0 0 0 0 0 0 0 0 0 0 0 0 0 0 0 0 0 0 0 0 0 0 0 0 0 0 0 0 0 0 0 0 0 0 0 0 0 0
0 0 0 0 0 0 0 0 0 0 0 0 0 0 0 0 0 0 0 0 0 0 0 0 0 0 0 0 0 0 0 0 0 0 0 0 0 0 0 0 0 0 0 0
0 0 0 0 0 0 0 0 0 0 0 0 0 0 0 0 0 0 0 0 0 0 0 0 0 0 0 0 0 0 0 0 0 0 0 0 0 0 0 0 0 0 0 0
0 0 0 0 0 0 0 0 0 0 0 0 0 0 0 0 0 0 0 0 0 0 0 0 0 0 0 0 0 0 0 0 0 0 0 0 0 0 0 0 0 0 0 0
0 0 0 0 0 0 0 0 0 0 0 0 0 0 0 0 0 0 0 0 0 0 0 0 0 0 0 0 0 0 0 0 0 0 0 0 0 0 0 0 0 0 0 0
0 0 0 0 0 0 0 0 0 0 0 0 0 0 0 0 0 0 0 0 0 0 0 0 0 0 0 0 0 0 0 0 0 0 0 0 0 0 0 0 0 0 0 0
0 0 0 0 0 0 0 0 0 0 0 0 0 0 0 0 0 0 0 0 0 0 0 0 0 0 0 0 0 0 0 0 0 0 0 0 0 0 0 0 0 0 0 0
0 0 0 0 0 0 0 0 0 0 0 0 0 0 0 0 0 0 0 0 0 0 0 0 0 0 0 0 0 0 0 0 0 0 0 0 0 0 0 0 0 0 0 0
0 0 0 0 0 0 0 0 0 0 0 0 0 0 0 0 0 0 0 0 0 0 0 0 0 0 0 0 0 0 0 0 0 0 0 0 0 0 0 0 0 0 0 0
0 0 0 0 0 0 0 0 0 0 0 0 0 0 0 0 0 0 0 0 0 0 0 0 0 0 0 0 0 0 0 0 0 0 0 0 0 0 0 0 0 0 0 0
0 0 0 0 0 0 0 0 0 0 0 0 0 0 0 0 0 0 0 0 0 0 0 0 0 0 0 0 0 0 0 0 0 0 0 0 0 0 0 0 0 0 0 0
0 0 0 0 0 0 0 0 0 0 0 0 0 0 0 0 0 0 0 0 0 0 0 0 0 0 0 0 0 0 0 0 0 0 0 0 0 0 0 0 0 0 0 0
0 0 0 0 0 0 0 0 0 0 0 0 0 0 0 0 0 0 0 0 0 0 0 0 0 0 0 0 0 0 0 0 0 0 0 0 0 0 0 0 0 0 0 0
0 0 0 0 0 0 0 0 0 0 0 0 0 0 0 0 0 0 0 0 0 0 0 0 0 0 0 0 0 0 0 0 0 0 0 0 0 0 0 0 0 0 0 0
0 0 0 0 0 0 0 0 0 0 0 0 0 0 0 0 0 0 0 0 0 0 0 0 0 0 0 0 0 0 0 0 0 0 0 0 0 0 0 0 0 0 0 0
0 0 0 0 0 0 0 0 0 0 0 0 0 0 0 0 0 0 0 0 0 0 0 0 0 0 0 0 0 0 0 0 0 0 0 0 0 0 0 0 0 0 0 0
0 0 0 0 0 0 0 0 0 0 0 0 0 0 0 0 0 0 0 0 0 0 0 0 0 0 0 0 0 0 0 0 0 0 0 0 0 0 0 0 0 0 0 0
0 0 0 0 0 0 0 0 0 0 0 0 0 0 0 0 0 0 0 0 0 0 0 0 0 0 0 0 0 0 0 0 0 0 0 0 0 0 0 0 0 0 0 0
0 0 0 0 0 0 0 0 0 0 0 0 0 0 0 0 0 0 0 0 0 0 0 0 0 0 0 0 0 0 0 0 0 0 0 0 0 0 0 0 0 0 0 0
0 0 0 0 0 0 0 0 0 0 0 0 0 0 0 0 0 0 0 0 0 0 0 0 0 0 0 0 0 0 0 0 0 0 0 0 0 0 0 0 0 0 0 0
0 0 0 0 0 0 0 0 0 0 0 0 0 0 0 0 0 0 0 0 0 0 0 0 0 0 0 0 0 0 0 0 0 0 0 0 0 0 0 0 0 0 0 0
Wind_Speed
2 6 15 16 15 13 9 11 18 15 4 9 17 21 26 26 24 27 25 22 19 22 22 22 22 21 20 20 19 18 15 13 10 7 6 4 4 3 3 3 4 4 4 5
5 16 17 5 6 7 8 13 18 14 2 7 16 22 25 26 29 27 26 22 16 17 18 20 21 22 23 23 21 19 17 15 12 7 5 2 1 2 2 3 5 5 5 6
17 11 2 7 9 11 13 17 15 11 6 7 13 21 13 13 14 16 20 18 14 16 19 22 24 26 24 24 23 20 19 16 13 9 6 4 2 3 4 5 4 5 6 6
14 8 6 7 12 13 14 11 10 7 7 8 6 25 10 9 9 15 19 12 13 15 18 21 24 26 26 24 22 21 18 15 12 11 8 8 6 7 5 3 4 6 7 7
9 7 8 10 9 10 5 3 3 4 7 9 9 16 12 3 8 17 19 11 14 15 16 19 22 23 24 21 19 19 18 16 14 13 11 9 8 7 4 5 7 8 8 8
7 2 5 5 3 1 5 3 2 2 4 13 13 18 17 5 8 13 15 10 10 11 14 15 17 19 20 20 19 19 19 17 15 15 14 12 10 8 7 7 7 6 6 6
8 6 4 4 4 3 6 5 6 7 8 13 2 12 18 12 13 15 17 8 8 9 11 14 17 20 22 23 22 20 21 19 17 16 15 13 12 10 9 8 7 6 6 7
8 14 10 10 11 9 11 9 10 12 14 15 4 17 16 10 13 14 11 6 6 9 9 12 16 19 21 23 24 23 23 21 19 17 15 13 11 8 7 6 5 6 7 8
11 15 2 1 1 4 8 10 6 6 6 14 19 26 17 5 8 9 12 13 14 11 11 13 16 19 21 24 25 25 25 23 20 17 15 12 10 8 7 6 6 7 8 7
7 12 2 3 1 1 2 5 6 6 7 16 30 30 18 6 12 10 12 15 15 11 12 13 15 18 20 21 22 23 24 23 20 17 13 10 10 8 6 5 7 7 8 8
7 11 6 5 14 16 11 9 6 4 7 10 22 26 2 3 3 10 13 13 11 12 14 14 15 18 19 19 21 23 23 22 19 16 14 12 10 7 6 6 6 7 8 8
8 6 11 12 4 4 10 12 17 13 12 11 11 29 3 2 4 6 6 8 9 11 12 12 14 16 19 22 22 23 21 20 19 16 14 11 9 8 7 6 6 6 7 8
11 7 10 16 10 5 9 10 14 16 15 23 16 31 20 18 7 7 8 9 8 12 14 12 14 18 20 21 21 21 21 19 17 16 13 11 9 8 6 6 6 6 7 8
11 10 18 27 25 10 11 14 21 24 21 25 28 29 33 30 19 17 15 13 16 16 15 17 18 18 18 19 20 21 21 19 18 16 14 11 9 8 6 5 6 6 6 7
7 13 19 22 25 22 21 16 21 26 30 31 26 24 33 29 21 21 21 19 20 17 16 19 18 17 18 19 21 22 21 19 18 15 13 11 9 6 5 6 6 5 6 7
5 17 22 26 27 27 25 22 31 33 34 32 26 29 38 30 27 26 29 24 26 22 20 19 18 17 20 22 22 22 20 18 17 15 13 11 9 7 6 5 5 6 6 7
10 12 16 25 28 24 22 30 35 44 43 35 33 35 36 31 29 30 29 23 24 23 22 17 17 20 21 23 24 23 20 19 16 14 13 11 10 8 6 5 5 6 6 7
16 21 17 14 16 24 29 29 37 37 35 33 33 38 35 35 28 29 23 17 21 21 19 13 15 17 17 18 20 19 18 17 16 14 13 12 11 9 7 5 4 5 5 6
28 25 17 14 20 22 12 21 25 23 29 29 31 33 32 27 13 28 21 18 22 19 15 10 11 13 17 19 21 20 18 17 16 15 14 12 10 9 7 5 4 3 4 6
28 30 25 19 18 23 25 25 13 5 10 31 30 27 29 15 9 23 13 14 18 13 4 8 9 12 15 18 21 22 20 18 16 15 13 11 8 6 5 4 2 2 4 6
18 22 28 30 29 20 17 11 9 16 31 32 27 24 25 23 24 22 5 11 5 4 8 12 14 13 14 16 18 19 18 15 14 14 12 10 8 7 6 4 1 1 4 6
27 19 22 23 29 28 23 24 27 37 32 24 19 15 14 18 21 19 11 11 8 8 11 13 12 14 15 17 19 18 16 15 14 13 12 10 7 6 5 4 3 1 2 5
30 35 30 30 24 19 26 35 37 35 29 26 21 15 9 12 16 16 12 12 10 9 9 10 11 14 14 15 17 19 17 16 15 13 12 10 9 7 5 4 3 2 2 3
17 25 29 32 33 22 17 20 21 22 26 27 24 18 11 16 16 13 10 10 10 11 11 10 12 14 14 13 14 18 18 16 14 12 12 10 8 7 5 4 3 2 1 4
11 15 13 16 21 27 24 16 12 13 16 18 19 14 15 16 16 15 12 14 14 13 13 13 13 15 17 16 16 16 17 18 16 14 11 10 8 6 5 4 3 1 1 4
26 26 21 20 17 17 16 12 12 14 17 19 18 19 19 19 20 18 16 15 14 15 16 17 17 18 19 18 17 15 14 15 16 14 11 9 7 5 4 3 3 2 2 6
Wind_Direction
143 233 238 238 232 256 269 263 265 268 211 234 252 260 269 277 272 264 265 260 245 230 221 204 196 192 187 187 186 186 185 183 179 181 186 188 187 187 204 200 228 249 283 293
195 242 253 259 228 226 239 257 266 272 219 244 272 272 269 267 266 268 269 267 251 236 221 202 193 192 190 189 189 189 189 184 186 183 170 161 169 256 271 266 252 259 280 280
229 253 247 210 211 211 229 239 253 275 310 257 289 274 252 258 262 268 261 257 244 223 213 200 196 195 192 191 191 191 191 186 182 172 159 158 200 244 238 234 243 260 271 283
238 242 191 205 230 214 241 238 246 265 286 288 322 290 277 248 248 267 269 243 220 213 211 202 199 197 195 192 189 190 187 182 177 174 179 194 210 226 229 264 279 286 290 287
225 187 190 213 225 191 225 112 183 234 261 284 249 263 268 204 243 256 263 244 215 205 202 201 201 199 196 190 186 186 183 180 176 179 186 197 217 237 265 279 283 289 291 290
256 209 216 211 96 161 144 123 148 191 259 260 242 244 270 219 219 244 255 229 204 197 196 201 198 196 193 189 187 183 182 181 179 182 190 201 214 223 236 246 261 271 283 294
235 220 203 171 145 146 185 202 259 245 226 260 212 239 263 268 242 234 250 236 184 188 189 190 189 191 188 190 190 184 184 184 181 184 191 199 208 216 232 242 251 271 281 276
241 251 195 194 211 178 186 212 222 255 275 286 238 255 265 234 251 249 260 255 205 211 203 198 194 192 191 190 191 188 186 185 181 185 190 194 200 207 222 240 260 268 269 276
227 256 118 84 53 138 172 199 220 265 274 276 264 264 268 162 243 243 250 248 239 230 212 202 197 195 193 192 193 190 184 183 182 183 185 187 189 196 207 219 240 254 262 275
243 258 148 112 124 44 206 158 153 188 238 263 275 280 275 204 231 212 226 235 238 222 217 210 202 201 198 195 193 191 187 182 178 177 179 179 182 189 198 217 239 255 270 280
216 241 230 175 211 194 171 199 206 233 235 245 269 273 127 200 223 198 213 225 229 223 216 207 207 202 199 196 192 189 187 180 172 171 169 172 176 180 195 222 246 262 273 282
200 216 238 235 210 232 218 212 198 212 227 231 246 269 197 249 154 175 215 233 229 226 218 210 206 201 198 196 191 188 185 177 167 164 165 170 171 180 198 220 244 262 277 286
177 194 241 252 241 213 220 217 220 236 248 247 231 255 260 267 248 231 234 242 243 228 217 213 208 206 204 195 188 184 182 173 159 160 165 168 177 185 200 223 249 265 276 287
183 199 223 241 250 228 219 223 223 222 229 247 243 255 273 271 272 273 265 251 242 236 225 221 214 212 206 194 186 182 180 170 160 163 166 171 177 183 198 230 247 261 279 295
191 228 239 251 261 263 271 265 246 233 238 246 256 261 264 274 278 277 276 274 269 256 234 228 223 212 200 192 185 181 178 168 161 163 166 168 165 174 195 227 248 272 286 285
190 242 247 254 261 264 265 261 263 260 250 251 258 262 263 272 281 281 273 269 271 267 254 237 221 205 198 192 184 179 174 164 159 162 163 159 164 174 198 219 249 267 272 281
221 234 239 247 244 255 247 239 245 253 259 254 253 255 264 262 258 258 267 271 265 265 263 250 213 204 199 189 181 178 167 156 157 158 158 161 167 179 194 212 241 263 279 293
234 232 231 245 241 235 235 238 239 248 253 253 251 254 255 258 264 270 266 262 258 259 262 240 212 206 192 178 173 164 155 152 156 158 162 166 171 176 184 206 232 259 278 293
220 226 230 224 227 238 234 238 233 235 254 256 251 254 255 260 268 267 258 245 255 261 267 250 206 189 170 167 161 154 153 153 158 165 167 168 171 172 176 190 220 259 291 306
222 224 230 227 230 231 230 234 233 110 253 250 244 245 253 251 228 259 251 215 236 240 207 142 147 154 161 158 155 155 158 158 163 163 160 157 160 163 173 182 216 296 311 307
213 217 226 233 239 239 228 216 166 199 239 247 246 241 244 242 234 250 194 154 198 153 145 148 147 153 156 155 160 156 154 158 152 144 141 145 154 168 171 174 172 299 314 314
214 211 216 225 238 240 221 218 214 233 238 242 251 246 225 235 245 245 209 165 175 170 162 161 155 152 154 162 161 154 147 139 137 138 139 145 158 177 170 166 163 175 326 323
224 224 226 222 230 230 212 217 224 234 245 246 249 248 208 226 235 234 214 194 192 185 175 172 159 148 154 165 162 147 138 139 142 143 144 153 161 174 173 172 151 112 41 336
260 254 254 252 251 256 249 234 234 239 242 245 249 254 212 223 235 233 217 191 185 184 178 173 159 154 153 159 149 136 138 141 142 145 149 153 158 165 172 168 138 105 27 328
279 287 273 268 279 278 275 270 271 277 280 272 265 254 240 238 238 233 219 205 197 183 173 171 169 162 156 152 138 139 144 148 148 149 151 149 152 164 156 137 125 125 198 288
255 263 269 271 283 281 283 296 303 291 279 269 263 260 247 240 241 234 223 217 194 180 170 170 171 164 155 150 143 147 154 151 145 146 152 149 147 153 142 125 133 149 323 333